Location: Newark
(42.7336°N, 84.5467°W)
Time: 04:22:42
(UTC+00:00)

Hubble Space Telescope - Pass Details

Date: 28 September 2020
Orbit: 536 x 540 km, 28.5° (Epoch: 21 October)

Event Time Altitude Azimuth Distance (km) Brightness Sun altitude
Exits shadow 10:31:00 - 211° (SSW) 2,059 3.4 -12.1°
Reaches altitude 10° 10:32:45 10° 190° (S) 1,776 3.2 -11.8°
Maximum altitude 10:33:44 11° 176° (S) 1,731 3.3 -11.6°
Drops below altitude 10° 10:34:42 10° 163° (SSE) 1,776 3.5 -11.4°
Sets 10:38:42 0° 124° (SE) 2,666 5.1 -10.7°
